Time,TemperatureF,DewpointF,PressureIn,WindDirection,WindDirectionDegrees,WindSpeedMPH,WindSpeedGustMPH,Humidity,HourlyPrecipIn,Conditions,Clouds,dailyrainin,SoftwareType,DateUTC
2013-06-14 00:03:00,80.4,68.9,29.97,East,80,0.0,0.0,68,0.00,,---,0.00,VWS V14.00,2013-06-14 05:03:00,
2013-06-14 00:08:00,80.3,68.8,29.97,East,81,0.0,0.0,68,0.00,,---,0.00,VWS V14.00,2013-06-14 05:08:00,
2013-06-14 00:13:00,80.2,69.1,29.97,East,82,0.0,3.0,69,0.00,,---,0.00,VWS V14.00,2013-06-14 05:13:00,
2013-06-14 00:18:00,80.2,69.1,29.97,East,82,0.0,0.0,69,0.00,,---,0.00,VWS V14.00,2013-06-14 05:18:00,
2013-06-14 00:23:00,80.1,69.0,29.97,East,88,0.0,0.0,69,0.00,,---,0.00,VWS V14.00,2013-06-14 05:23:00,
2013-06-14 00:28:00,80.0,68.9,29.96,East,88,0.0,0.0,69,0.00,,---,0.00,VWS V14.00,2013-06-14 05:28:00,
2013-06-14 00:33:00,79.8,68.7,29.96,East,88,0.0,0.0,69,0.00,,---,0.00,VWS V14.00,2013-06-14 05:33:00,
2013-06-14 00:38:00,79.6,69.0,29.96,East,88,0.0,0.0,70,0.00,,---,0.00,VWS V14.00,2013-06-14 05:38:00,
2013-06-14 00:43:00,79.5,68.9,29.96,East,88,0.0,0.0,70,0.00,,---,0.00,VWS V14.00,2013-06-14 05:43:00,
2013-06-14 00:49:00,79.4,68.8,29.96,East,86,0.0,3.0,70,0.00,,---,0.00,VWS V14.00,2013-06-14 05:49:00,
2013-06-14 00:55:00,79.4,68.8,29.96,East,82,0.0,0.0,70,0.00,,---,0.00,VWS V14.00,2013-06-14 05:55:00,
2013-06-14 01:00:00,79.3,68.7,29.96,East,83,0.0,0.0,70,0.00,,---,0.00,VWS V14.00,2013-06-14 06:00:00,
2013-06-14 01:05:00,79.1,68.9,29.96,East,83,0.0,0.0,71,0.00,,---,0.00,VWS V14.00,2013-06-14 06:05:00,
2013-06-14 01:10:00,79.1,68.9,29.96,East,83,0.0,0.0,71,0.00,,---,0.00,VWS V14.00,2013-06-14 06:10:00,
2013-06-14 01:15:00,79.0,68.8,29.96,East,83,0.0,0.0,71,0.00,,---,0.00,VWS V14.00,2013-06-14 06:15:00,
2013-06-14 01:20:00,78.8,68.6,29.96,East,83,0.0,0.0,71,0.00,,---,0.00,VWS V14.00,2013-06-14 06:20:00,
2013-06-14 01:25:00,78.7,68.9,29.96,East,84,0.0,0.0,72,0.00,,---,0.00,VWS V14.00,2013-06-14 06:25:00,
2013-06-14 01:30:00,78.6,68.8,29.96,East,86,2.0,3.0,72,0.00,,---,0.00,VWS V14.00,2013-06-14 06:30:00,
2013-06-14 01:35:00,78.6,68.8,29.96,East,86,0.0,0.0,72,0.00,,---,0.00,VWS V14.00,2013-06-14 06:35:00,
2013-06-14 01:40:00,78.5,68.7,29.96,East,86,0.0,0.0,72,0.00,,---,0.00,VWS V14.00,2013-06-14 06:40:00,
2013-06-14 01:45:00,78.3,68.9,29.95,East,86,0.0,0.0,73,0.00,,---,0.00,VWS V14.00,2013-06-14 06:45:00,
2013-06-14 01:50:00,78.2,68.8,29.95,East,86,0.0,0.0,73,0.00,,---,0.00,VWS V14.00,2013-06-14 06:50:00,
2013-06-14 01:55:00,78.0,69.1,29.95,East,85,0.0,0.0,74,0.00,,---,0.00,VWS V14.00,2013-06-14 06:55:00,
2013-06-14 02:01:00,77.9,68.9,29.95,East,85,0.0,0.0,74,0.00,,---,0.00,VWS V14.00,2013-06-14 07:01:00,
2013-06-14 02:06:00,77.8,68.9,29.95,East,85,0.0,0.0,74,0.00,,---,0.00,VWS V14.00,2013-06-14 07:06:00,
2013-06-14 02:11:00,77.7,68.8,29.95,East,85,0.0,0.0,74,0.00,,---,0.00,VWS V14.00,2013-06-14 07:11:00,
2013-06-14 02:16:00,77.7,68.8,29.95,East,85,0.0,0.0,74,0.00,,---,0.00,VWS V14.00,2013-06-14 07:16:00,
2013-06-14 02:21:00,77.6,68.7,29.95,East,84,0.0,0.0,74,0.00,,---,0.00,VWS V14.00,2013-06-14 07:21:00,
2013-06-14 02:26:00,77.5,68.6,29.95,East,84,0.0,0.0,74,0.00,,---,0.00,VWS V14.00,2013-06-14 07:26:00,
2013-06-14 02:31:00,77.4,68.9,29.94,East,84,0.0,0.0,75,0.00,,---,0.00,VWS V14.00,2013-06-14 07:31:00,
2013-06-14 02:36:00,77.3,68.8,29.94,East,84,0.0,0.0,75,0.00,,---,0.00,VWS V14.00,2013-06-14 07:36:00,
2013-06-14 02:41:00,77.3,68.8,29.94,East,84,0.0,0.0,75,0.00,,---,0.00,VWS V14.00,2013-06-14 07:41:00,
2013-06-14 02:46:00,77.5,69.0,29.94,East,84,0.0,0.0,75,0.00,,---,0.00,VWS V14.00,2013-06-14 07:46:00,
2013-06-14 02:51:00,77.4,68.9,29.94,East,84,0.0,0.0,75,0.00,,---,0.00,VWS V14.00,2013-06-14 07:51:00,
2013-06-14 02:56:00,77.2,68.7,29.94,East,84,0.0,0.0,75,0.00,,---,0.00,VWS V14.00,2013-06-14 07:56:00,
2013-06-14 03:01:00,77.0,68.9,29.94,East,84,0.0,0.0,76,0.00,,---,0.00,VWS V14.00,2013-06-14 08:01:00,
2013-06-14 03:06:00,76.9,68.8,29.94,East,84,0.0,0.0,76,0.00,,---,0.00,VWS V14.00,2013-06-14 08:06:00,
2013-06-14 03:11:00,76.7,68.9,29.94,East,84,0.0,0.0,77,0.00,,---,0.00,VWS V14.00,2013-06-14 08:11:00,
2013-06-14 03:16:00,76.5,68.8,29.94,East,84,0.0,0.0,77,0.00,,---,0.00,VWS V14.00,2013-06-14 08:16:00,
2013-06-14 03:22:00,76.3,68.9,29.94,East,84,0.0,0.0,78,0.00,,---,0.00,VWS V14.00,2013-06-14 08:22:00,
2013-06-14 03:27:00,76.1,68.8,29.93,East,84,0.0,0.0,78,0.00,,---,0.00,VWS V14.00,2013-06-14 08:27:00,
2013-06-14 03:32:00,75.9,68.9,29.93,East,84,0.0,0.0,79,0.00,,---,0.00,VWS V14.00,2013-06-14 08:32:00,
2013-06-14 03:37:00,75.7,68.7,29.93,East,84,0.0,0.0,79,0.00,,---,0.00,VWS V14.00,2013-06-14 08:37:00,
2013-06-14 03:43:00,75.5,68.9,29.94,East,84,0.0,0.0,80,0.00,,---,0.00,VWS V14.00,2013-06-14 08:43:00,
2013-06-14 03:48:00,75.3,68.7,29.94,East,84,0.0,0.0,80,0.00,,---,0.00,VWS V14.00,2013-06-14 08:48:00,
2013-06-14 03:53:00,75.2,68.6,29.94,East,84,0.0,0.0,80,0.00,,---,0.00,VWS V14.00,2013-06-14 08:53:00,
2013-06-14 03:58:00,75.0,68.8,29.94,East,84,0.0,0.0,81,0.00,,---,0.00,VWS V14.00,2013-06-14 08:58:00,
2013-06-14 04:03:00,75.0,68.8,29.94,East,84,0.0,0.0,81,0.00,,---,0.00,VWS V14.00,2013-06-14 09:03:00,
2013-06-14 04:08:00,75.1,68.9,29.94,East,84,0.0,0.0,81,0.00,,---,0.00,VWS V14.00,2013-06-14 09:08:00,
2013-06-14 04:13:00,75.2,69.0,29.93,East,84,0.0,0.0,81,0.00,,---,0.00,VWS V14.00,2013-06-14 09:13:00,
2013-06-14 04:18:00,75.1,68.9,29.93,East,84,0.0,0.0,81,0.00,,---,0.00,VWS V14.00,2013-06-14 09:18:00,
2013-06-14 04:23:00,74.9,68.7,29.93,East,84,0.0,0.0,81,0.00,,---,0.00,VWS V14.00,2013-06-14 09:23:00,
2013-06-14 04:28:00,74.8,68.9,29.93,East,84,0.0,0.0,82,0.00,,---,0.00,VWS V14.00,2013-06-14 09:28:00,
2013-06-14 04:34:00,74.6,68.8,29.93,East,84,0.0,0.0,82,0.00,,---,0.00,VWS V14.00,2013-06-14 09:34:00,
2013-06-14 04:39:00,74.5,68.7,29.93,East,84,0.0,0.0,82,0.00,,---,0.00,VWS V14.00,2013-06-14 09:39:00,
2013-06-14 04:44:00,74.4,68.6,29.93,East,84,0.0,0.0,82,0.00,,---,0.00,VWS V14.00,2013-06-14 09:44:00,
2013-06-14 04:49:00,74.2,68.7,29.93,East,84,0.0,0.0,83,0.00,,---,0.00,VWS V14.00,2013-06-14 09:49:00,
2013-06-14 04:55:00,74.2,68.7,29.93,East,84,0.0,0.0,83,0.00,,---,0.00,VWS V14.00,2013-06-14 09:55:00,
2013-06-14 05:00:00,74.2,68.7,29.94,East,84,0.0,0.0,83,0.00,,---,0.00,VWS V14.00,2013-06-14 10:00:00,
2013-06-14 05:05:00,74.2,68.7,29.94,East,84,0.0,0.0,83,0.00,,---,0.00,VWS V14.00,2013-06-14 10:05:00,
2013-06-14 05:10:00,74.2,68.7,29.94,East,84,0.0,0.0,83,0.00,,---,0.00,VWS V14.00,2013-06-14 10:10:00,
2013-06-14 05:15:00,74.2,68.7,29.94,East,84,0.0,0.0,83,0.00,,---,0.00,VWS V14.00,2013-06-14 10:15:00,
2013-06-14 05:20:00,74.2,68.7,29.94,East,84,0.0,0.0,83,0.00,,---,0.00,VWS V14.00,2013-06-14 10:20:00,
2013-06-14 05:25:00,74.2,68.7,29.94,East,84,0.0,0.0,83,0.00,,---,0.00,VWS V14.00,2013-06-14 10:25:00,
2013-06-14 05:30:00,74.2,68.7,29.95,East,84,0.0,0.0,83,0.00,,---,0.00,VWS V14.00,2013-06-14 10:30:00,
2013-06-14 05:35:00,74.2,68.7,29.95,East,84,0.0,0.0,83,0.00,,---,0.00,VWS V14.00,2013-06-14 10:35:00,
2013-06-14 05:40:00,74.2,68.7,29.95,East,84,0.0,0.0,83,0.00,,---,0.00,VWS V14.00,2013-06-14 10:40:00,
2013-06-14 05:45:00,74.2,68.7,29.95,East,84,0.0,0.0,83,0.00,,---,0.00,VWS V14.00,2013-06-14 10:45:00,
2013-06-14 05:50:00,74.2,68.7,29.95,East,84,0.0,0.0,83,0.00,,---,0.00,VWS V14.00,2013-06-14 10:50:00,
2013-06-14 05:55:00,74.2,68.7,29.95,East,84,0.0,0.0,83,0.00,,---,0.00,VWS V14.00,2013-06-14 10:55:00,
2013-06-14 06:00:00,74.2,68.7,29.94,East,84,0.0,0.0,83,0.00,,---,0.00,VWS V14.00,2013-06-14 11:00:00,
2013-06-14 06:05:00,74.2,68.7,29.94,East,84,0.0,0.0,83,0.00,,---,0.00,VWS V14.00,2013-06-14 11:05:00,
2013-06-14 06:10:00,74.2,68.7,29.94,East,84,0.0,0.0,83,0.00,,---,0.00,VWS V14.00,2013-06-14 11:10:00,
2013-06-14 06:15:00,74.2,68.7,29.94,East,84,0.0,0.0,83,0.00,,---,0.00,VWS V14.00,2013-06-14 11:15:00,
2013-06-14 06:20:00,74.2,68.7,29.94,East,84,0.0,0.0,83,0.00,,---,0.00,VWS V14.00,2013-06-14 11:20:00,
2013-06-14 06:25:00,74.2,68.7,29.94,East,84,0.0,0.0,83,0.00,,---,0.00,VWS V14.00,2013-06-14 11:25:00,
2013-06-14 06:30:00,74.2,68.7,29.95,East,84,0.0,0.0,83,0.00,,---,0.00,VWS V14.00,2013-06-14 11:30:00,
2013-06-14 06:35:00,74.2,68.7,29.95,East,84,0.0,0.0,83,0.00,,---,0.00,VWS V14.00,2013-06-14 11:35:00,
2013-06-14 06:40:00,74.2,68.7,29.95,East,84,0.0,0.0,83,0.00,,---,0.00,VWS V14.00,2013-06-14 11:40:00,
2013-06-14 06:45:00,74.2,68.7,29.94,East,84,0.0,0.0,83,0.00,,---,0.00,VWS V14.00,2013-06-14 11:45:00,
2013-06-14 06:50:00,74.2,68.7,29.94,East,84,0.0,0.0,83,0.00,,---,0.00,VWS V14.00,2013-06-14 11:50:00,
2013-06-14 06:55:00,74.2,68.7,29.94,East,84,0.0,0.0,83,0.00,,---,0.00,VWS V14.00,2013-06-14 11:55:00,
2013-06-14 07:00:00,74.2,68.7,29.95,East,84,0.0,0.0,83,0.00,,---,0.00,VWS V14.00,2013-06-14 12:00:00,
2013-06-14 07:05:00,74.2,68.7,29.95,East,84,0.0,0.0,83,0.00,,---,0.00,VWS V14.00,2013-06-14 12:05:00,
2013-06-14 07:10:00,74.2,68.7,29.95,East,84,0.0,0.0,83,0.00,,---,0.00,VWS V14.00,2013-06-14 12:10:00,
2013-06-14 07:15:00,74.2,68.7,29.97,East,84,0.0,0.0,83,0.00,,---,0.00,VWS V14.00,2013-06-14 12:15:00,
2013-06-14 07:21:00,74.2,68.7,29.97,East,84,0.0,0.0,83,0.00,,---,0.00,VWS V14.00,2013-06-14 12:21:00,
2013-06-14 07:26:00,74.2,68.7,29.97,East,84,0.0,0.0,83,0.00,,---,0.00,VWS V14.00,2013-06-14 12:26:00,
2013-06-14 07:31:00,74.2,68.7,29.97,East,84,0.0,0.0,83,0.00,,---,0.00,VWS V14.00,2013-06-14 12:31:00,
2013-06-14 07:36:00,74.2,68.7,29.97,East,84,0.0,0.0,83,0.00,,---,0.00,VWS V14.00,2013-06-14 12:36:00,
2013-06-14 07:41:00,74.2,68.7,29.97,East,84,0.0,0.0,83,0.00,,---,0.00,VWS V14.00,2013-06-14 12:41:00,
2013-06-14 07:46:00,74.2,68.7,29.97,East,84,0.0,0.0,83,0.00,,---,0.00,VWS V14.00,2013-06-14 12:46:00,
2013-06-14 07:51:00,78.1,70.7,29.97,SE,139,5.0,5.0,78,0.00,,---,0.00,VWS V14.00,2013-06-14 12:51:00,
2013-06-14 07:56:00,78.2,70.8,29.97,SE,125,1.0,1.0,78,0.00,,---,0.00,VWS V14.00,2013-06-14 12:56:00,
2013-06-14 08:01:00,78.3,70.5,29.98,ESE,120,5.0,7.0,77,0.00,,---,0.00,VWS V14.00,2013-06-14 13:01:00,
2013-06-14 08:06:00,78.4,71.0,29.98,South,177,0.0,5.0,78,0.00,,---,0.00,VWS V14.00,2013-06-14 13:06:00,
2013-06-14 08:11:00,78.5,71.1,29.98,SE,129,0.0,0.0,78,0.00,,---,0.00,VWS V14.00,2013-06-14 13:11:00,
2013-06-14 08:16:00,78.7,70.9,29.98,SE,130,5.0,7.0,77,0.00,,---,0.00,VWS V14.00,2013-06-14 13:16:00,
2013-06-14 08:21:00,78.9,71.1,29.98,SE,144,0.0,0.0,77,0.00,,---,0.00,VWS V14.00,2013-06-14 13:21:00,
2013-06-14 08:26:00,79.3,71.5,29.98,ESE,102,0.0,0.0,77,0.00,,---,0.00,VWS V14.00,2013-06-14 13:26:00,
2013-06-14 08:31:00,79.6,71.4,29.98,South,171,0.0,0.0,76,0.00,,---,0.00,VWS V14.00,2013-06-14 13:31:00,
2013-06-14 08:36:00,80.0,71.8,29.98,SW,216,0.0,0.0,76,0.00,,---,0.00,VWS V14.00,2013-06-14 13:36:00,
2013-06-14 08:41:00,80.3,71.7,29.98,SE,131,0.0,1.0,75,0.00,,---,0.00,VWS V14.00,2013-06-14 13:41:00,
2013-06-14 08:46:00,80.7,72.0,29.98,SE,144,0.0,0.0,75,0.00,,---,0.00,VWS V14.00,2013-06-14 13:46:00,
2013-06-14 08:52:00,80.7,71.7,29.98,ESE,118,0.0,9.0,74,0.00,,---,0.00,VWS V14.00,2013-06-14 13:52:00,
2013-06-14 08:57:00,80.6,71.6,29.98,SE,124,3.0,5.0,74,0.00,,---,0.00,VWS V14.00,2013-06-14 13:57:00,
2013-06-14 09:02:00,80.8,72.1,29.98,ESE,121,0.0,0.0,75,0.00,,---,0.00,VWS V14.00,2013-06-14 14:02:00,
2013-06-14 09:07:00,81.0,71.9,29.98,ESE,123,0.0,5.0,74,0.00,,---,0.00,VWS V14.00,2013-06-14 14:07:00,
2013-06-14 09:12:00,81.4,72.3,29.98,East,82,0.0,0.0,74,0.00,,---,0.00,VWS V14.00,2013-06-14 14:12:00,
2013-06-14 09:17:00,81.7,72.6,29.98,SE,146,3.0,4.0,74,0.00,,---,0.00,VWS V14.00,2013-06-14 14:17:00,
2013-06-14 09:22:00,82.0,72.1,29.98,SE,145,0.0,0.0,72,0.00,,---,0.00,VWS V14.00,2013-06-14 14:22:00,
2013-06-14 09:27:00,82.1,72.6,29.99,ESE,118,0.0,6.0,73,0.00,,---,0.00,VWS V14.00,2013-06-14 14:27:00,
2013-06-14 09:32:00,82.5,73.0,29.99,South,179,0.0,3.0,73,0.00,,---,0.00,VWS V14.00,2013-06-14 14:32:00,
2013-06-14 09:37:00,82.7,72.8,29.99,SE,145,4.0,7.0,72,0.00,,---,0.00,VWS V14.00,2013-06-14 14:37:00,
2013-06-14 09:42:00,82.6,73.1,29.99,South,181,4.0,9.0,73,0.00,,---,0.00,VWS V14.00,2013-06-14 14:42:00,
2013-06-14 09:47:00,82.4,72.5,29.99,South,181,0.0,5.0,72,0.00,,---,0.00,VWS V14.00,2013-06-14 14:47:00,
2013-06-14 09:52:00,82.6,73.1,29.99,SE,130,0.0,5.0,73,0.00,,---,0.00,VWS V14.00,2013-06-14 14:52:00,
2013-06-14 09:57:00,83.1,73.1,29.99,ESE,117,0.0,7.0,72,0.00,,---,0.00,VWS V14.00,2013-06-14 14:57:00,
2013-06-14 10:03:00,83.9,73.5,29.99,SE,136,2.0,6.0,71,0.00,,---,0.00,VWS V14.00,2013-06-14 15:03:00,
2013-06-14 10:08:00,83.8,73.0,29.99,SE,124,0.0,0.0,70,0.00,,---,0.00,VWS V14.00,2013-06-14 15:08:00,
2013-06-14 10:13:00,83.8,73.0,29.99,SSW,199,0.0,10.0,70,0.00,,---,0.00,VWS V14.00,2013-06-14 15:13:00,
2013-06-14 10:18:00,84.0,73.6,29.99,South,170,0.0,3.0,71,0.00,,---,0.00,VWS V14.00,2013-06-14 15:18:00,
2013-06-14 10:23:00,84.5,73.2,29.99,SSE,162,0.0,1.0,69,0.00,,---,0.00,VWS V14.00,2013-06-14 15:23:00,
2013-06-14 10:28:00,84.9,73.6,29.99,SSW,197,9.0,11.0,69,0.00,,---,0.00,VWS V14.00,2013-06-14 15:28:00,
2013-06-14 10:34:00,84.7,73.8,29.99,SSE,166,0.0,5.0,70,0.00,,---,0.00,VWS V14.00,2013-06-14 15:34:00,
2013-06-14 10:39:00,85.1,73.8,29.99,SSW,192,2.0,10.0,69,0.00,,---,0.00,VWS V14.00,2013-06-14 15:39:00,
2013-06-14 10:44:00,85.4,74.1,29.99,South,178,0.0,1.0,69,0.00,,---,0.00,VWS V14.00,2013-06-14 15:44:00,
2013-06-14 10:49:00,86.0,73.8,29.99,SE,135,3.0,10.0,67,0.00,,---,0.00,VWS V14.00,2013-06-14 15:49:00,
2013-06-14 10:55:00,86.2,74.4,29.99,South,181,0.0,0.0,68,0.00,,---,0.00,VWS V14.00,2013-06-14 15:55:00,
2013-06-14 11:00:00,86.3,73.6,29.99,ESE,122,0.0,7.0,66,0.00,,---,0.00,VWS V14.00,2013-06-14 16:00:00,
2013-06-14 11:05:00,86.5,74.7,29.99,SE,124,0.0,6.0,68,0.00,,---,0.00,VWS V14.00,2013-06-14 16:05:00,
2013-06-14 11:10:00,87.0,74.3,29.99,SSW,197,3.0,12.0,66,0.00,,---,0.00,VWS V14.00,2013-06-14 16:10:00,
2013-06-14 11:15:00,87.3,75.0,29.98,SE,134,0.0,1.0,67,0.00,,---,0.00,VWS V14.00,2013-06-14 16:15:00,
2013-06-14 11:20:00,87.9,75.1,29.98,SE,133,0.0,3.0,66,0.00,,---,0.00,VWS V14.00,2013-06-14 16:20:00,
2013-06-14 11:25:00,87.9,74.7,29.98,ESE,114,0.0,0.0,65,0.00,,---,0.00,VWS V14.00,2013-06-14 16:25:00,
2013-06-14 11:30:00,88.3,74.6,29.98,SE,146,0.0,7.0,64,0.00,,---,0.00,VWS V14.00,2013-06-14 16:30:00,
2013-06-14 11:35:00,88.5,74.8,29.98,SE,125,5.0,6.0,64,0.00,,---,0.00,VWS V14.00,2013-06-14 16:35:00,
2013-06-14 11:41:00,89.3,75.1,29.98,ENE,71,0.0,1.0,63,0.00,,---,0.00,VWS V14.00,2013-06-14 16:41:00,
2013-06-14 11:46:00,89.3,75.1,29.98,ESE,110,3.0,3.0,63,0.00,,---,0.00,VWS V14.00,2013-06-14 16:46:00,
2013-06-14 11:51:00,89.6,74.9,29.98,South,179,0.0,4.0,62,0.00,,---,0.00,VWS V14.00,2013-06-14 16:51:00,
2013-06-14 11:56:00,89.3,74.1,29.98,ESE,118,0.0,4.0,61,0.00,,---,0.00,VWS V14.00,2013-06-14 16:56:00,
2013-06-14 12:01:00,89.6,74.4,29.97,SSW,205,3.0,5.0,61,0.00,,---,0.00,VWS V14.00,2013-06-14 17:01:00,
2013-06-14 12:06:00,89.7,74.0,29.97,SSE,163,0.0,13.0,60,0.00,,---,0.00,VWS V14.00,2013-06-14 17:06:00,
2013-06-14 12:12:00,89.4,75.6,29.97,SE,129,0.0,2.0,64,0.00,,---,0.00,VWS V14.00,2013-06-14 17:12:00,
2013-06-14 12:17:00,90.4,74.6,29.97,ESE,121,5.0,6.0,60,0.00,,---,0.00,VWS V14.00,2013-06-14 17:17:00,
2013-06-14 12:22:00,89.8,75.5,29.97,SSE,148,4.0,9.0,63,0.00,,---,0.00,VWS V14.00,2013-06-14 17:22:00,
2013-06-14 12:27:00,90.2,74.9,29.97,SE,136,3.0,7.0,61,0.00,,---,0.00,VWS V14.00,2013-06-14 17:27:00,
2013-06-14 12:32:00,90.5,75.2,29.97,ENE,75,5.0,5.0,61,0.00,,---,0.00,VWS V14.00,2013-06-14 17:32:00,
2013-06-14 12:38:00,90.7,75.4,29.97,SE,138,3.0,7.0,61,0.00,,---,0.00,VWS V14.00,2013-06-14 17:38:00,
2013-06-14 12:43:00,90.6,74.8,29.96,ESE,122,0.0,6.0,60,0.00,,---,0.00,VWS V14.00,2013-06-14 17:43:00,
2013-06-14 12:48:00,90.3,74.5,29.96,SE,127,0.0,4.0,60,0.00,,---,0.00,VWS V14.00,2013-06-14 17:48:00,
2013-06-14 12:53:00,91.1,74.8,29.96,ESE,108,0.0,1.0,59,0.00,,---,0.00,VWS V14.00,2013-06-14 17:53:00,
2013-06-14 12:58:00,91.9,76.0,29.95,SE,127,0.0,0.0,60,0.00,,---,0.00,VWS V14.00,2013-06-14 17:58:00,
2013-06-14 13:03:00,91.8,75.4,29.95,SE,124,3.0,9.0,59,0.00,,---,0.00,VWS V14.00,2013-06-14 18:03:00,
2013-06-14 13:08:00,91.9,76.0,29.95,SE,124,1.0,4.0,60,0.00,,---,0.00,VWS V14.00,2013-06-14 18:08:00,
2013-06-14 13:13:00,92.2,75.3,29.95,ESE,116,2.0,6.0,58,0.00,,---,0.00,VWS V14.00,2013-06-14 18:13:00,
2013-06-14 13:18:00,91.4,74.6,29.95,SSW,195,0.0,9.0,58,0.00,,---,0.00,VWS V14.00,2013-06-14 18:18:00,
2013-06-14 13:23:00,91.8,74.9,29.95,SSW,194,0.0,2.0,58,0.00,,---,0.00,VWS V14.00,2013-06-14 18:23:00,
2013-06-14 13:28:00,91.9,75.0,29.95,SSE,147,0.0,5.0,58,0.00,,---,0.00,VWS V14.00,2013-06-14 18:28:00,
2013-06-14 13:33:00,91.7,74.8,29.95,South,184,0.0,10.0,58,0.00,,---,0.00,VWS V14.00,2013-06-14 18:33:00,
2013-06-14 13:38:00,92.8,75.3,29.95,South,172,0.0,5.0,57,0.00,,---,0.00,VWS V14.00,2013-06-14 18:38:00,
2013-06-14 13:43:00,92.6,75.2,29.94,SSW,202,1.0,7.0,57,0.00,,---,0.00,VWS V14.00,2013-06-14 18:43:00,
2013-06-14 13:48:00,92.4,75.5,29.94,South,185,6.0,8.0,58,0.00,,---,0.00,VWS V14.00,2013-06-14 18:48:00,
2013-06-14 13:53:00,92.3,75.9,29.94,SW,228,1.0,11.0,59,0.00,,---,0.00,VWS V14.00,2013-06-14 18:53:00,
2013-06-14 13:58:00,92.9,76.5,29.94,ESE,117,6.0,7.0,59,0.00,,---,0.00,VWS V14.00,2013-06-14 18:58:00,
2013-06-14 14:03:00,92.7,75.2,29.94,SSW,203,0.0,7.0,57,0.00,,---,0.00,VWS V14.00,2013-06-14 19:03:00,
2013-06-14 14:08:00,92.4,76.0,29.94,SE,129,5.0,5.0,59,0.00,,---,0.00,VWS V14.00,2013-06-14 19:08:00,
2013-06-14 14:14:00,92.7,75.8,29.93,SE,144,0.0,5.0,58,0.00,,---,0.00,VWS V14.00,2013-06-14 19:14:00,
2013-06-14 14:19:00,92.8,76.4,29.93,SE,127,3.0,7.0,59,0.00,,---,0.00,VWS V14.00,2013-06-14 19:19:00,
2013-06-14 14:24:00,93.3,76.3,29.93,South,183,5.0,6.0,58,0.00,,---,0.00,VWS V14.00,2013-06-14 19:24:00,
2013-06-14 14:29:00,94.1,76.0,29.93,SE,131,0.0,6.0,56,0.00,,---,0.00,VWS V14.00,2013-06-14 19:29:00,
2013-06-14 14:34:00,93.2,75.2,29.93,ESE,123,0.0,10.0,56,0.00,,---,0.00,VWS V14.00,2013-06-14 19:34:00,
2013-06-14 14:39:00,93.3,76.8,29.93,SE,124,0.0,0.0,59,0.00,,---,0.00,VWS V14.00,2013-06-14 19:39:00,
2013-06-14 14:44:00,93.4,76.4,29.93,WSW,240,0.0,7.0,58,0.00,,---,0.00,VWS V14.00,2013-06-14 19:44:00,
2013-06-14 14:49:00,93.7,75.1,29.93,ESE,120,1.0,14.0,55,0.00,,---,0.00,VWS V14.00,2013-06-14 19:49:00,
2013-06-14 14:54:00,93.9,76.4,29.93,South,181,0.0,0.0,57,0.00,,---,0.00,VWS V14.00,2013-06-14 19:54:00,
2013-06-14 14:59:00,94.2,76.1,29.92,SSE,165,0.0,1.0,56,0.00,,---,0.00,VWS V14.00,2013-06-14 19:59:00,
2013-06-14 15:04:00,94.2,75.0,29.92,SSW,193,0.0,0.0,54,0.00,,---,0.00,VWS V14.00,2013-06-14 20:04:00,
2013-06-14 15:09:00,93.9,74.2,29.92,ESE,108,5.0,5.0,53,0.00,,---,0.00,VWS V14.00,2013-06-14 20:09:00,
2013-06-14 15:14:00,93.7,74.0,29.92,SSW,207,2.0,6.0,53,0.00,,---,0.00,VWS V14.00,2013-06-14 20:14:00,
2013-06-14 15:19:00,93.6,73.9,29.92,SSW,205,7.0,13.0,53,0.00,,---,0.00,VWS V14.00,2013-06-14 20:19:00,
2013-06-14 15:24:00,93.3,74.7,29.92,ESE,118,5.0,7.0,55,0.00,,---,0.00,VWS V14.00,2013-06-14 20:24:00,
2013-06-14 15:29:00,93.3,73.6,29.92,ESE,116,3.0,7.0,53,0.00,,---,0.00,VWS V14.00,2013-06-14 20:29:00,
2013-06-14 15:34:00,93.6,73.3,29.92,SSE,149,0.0,4.0,52,0.00,,---,0.00,VWS V14.00,2013-06-14 20:34:00,
2013-06-14 15:39:00,93.6,73.3,29.92,ESE,117,0.0,11.0,52,0.00,,---,0.00,VWS V14.00,2013-06-14 20:39:00,
2013-06-14 15:45:00,94.1,73.8,29.91,SSE,152,0.0,6.0,52,0.00,,---,0.00,VWS V14.00,2013-06-14 20:45:00,
2013-06-14 15:50:00,93.9,74.2,29.91,SE,127,0.0,0.0,53,0.00,,---,0.00,VWS V14.00,2013-06-14 20:50:00,
2013-06-14 15:56:00,94.1,73.2,29.91,South,172,1.0,5.0,51,0.00,,---,0.00,VWS V14.00,2013-06-14 20:56:00,
2013-06-14 16:01:00,94.3,74.6,29.91,WSW,248,5.0,5.0,53,0.00,,---,0.00,VWS V14.00,2013-06-14 21:01:00,
2013-06-14 16:06:00,94.1,73.2,29.91,WSW,257,0.0,2.0,51,0.00,,---,0.00,VWS V14.00,2013-06-14 21:06:00,
2013-06-14 16:11:00,94.6,74.3,29.91,South,169,0.0,1.0,52,0.00,,---,0.00,VWS V14.00,2013-06-14 21:11:00,
2013-06-14 16:16:00,94.2,73.9,29.91,ESE,113,1.0,5.0,52,0.00,,---,0.00,VWS V14.00,2013-06-14 21:16:00,
2013-06-14 16:21:00,94.1,73.8,29.91,SSW,207,5.0,7.0,52,0.00,,---,0.00,VWS V14.00,2013-06-14 21:21:00,
2013-06-14 16:26:00,94.3,74.6,29.91,West,260,5.0,5.0,53,0.00,,---,0.00,VWS V14.00,2013-06-14 21:26:00,
2013-06-14 16:31:00,94.3,73.4,29.91,South,182,0.0,10.0,51,0.00,,---,0.00,VWS V14.00,2013-06-14 21:31:00,
2013-06-14 16:36:00,93.6,72.8,29.91,South,185,3.0,7.0,51,0.00,,---,0.00,VWS V14.00,2013-06-14 21:36:00,
2013-06-14 16:41:00,93.7,74.0,29.91,SW,221,1.0,6.0,53,0.00,,---,0.00,VWS V14.00,2013-06-14 21:41:00,
2013-06-14 16:46:00,94.3,74.6,29.91,SW,217,0.0,1.0,53,0.00,,---,0.00,VWS V14.00,2013-06-14 21:46:00,
2013-06-14 16:51:00,94.5,74.7,29.91,SE,124,1.0,7.0,53,0.00,,---,0.00,VWS V14.00,2013-06-14 21:51:00,
2013-06-14 16:56:00,94.3,74.6,29.91,South,187,2.0,8.0,53,0.00,,---,0.00,VWS V14.00,2013-06-14 21:56:00,
2013-06-14 17:01:00,94.0,74.3,29.91,SSW,202,0.0,9.0,53,0.00,,---,0.00,VWS V14.00,2013-06-14 22:01:00,
2013-06-14 17:06:00,94.0,73.7,29.91,SSW,203,13.0,13.0,52,0.00,,---,0.00,VWS V14.00,2013-06-14 22:06:00,
2013-06-14 17:11:00,93.4,73.7,29.91,SE,141,2.0,6.0,53,0.00,,---,0.00,VWS V14.00,2013-06-14 22:11:00,
2013-06-14 17:16:00,93.5,73.8,29.90,SSE,163,5.0,7.0,53,0.00,,---,0.00,VWS V14.00,2013-06-14 22:16:00,
2013-06-14 17:21:00,93.6,73.9,29.90,SE,139,0.0,4.0,53,0.00,,---,0.00,VWS V14.00,2013-06-14 22:21:00,
2013-06-14 17:27:00,93.8,72.9,29.90,ESE,110,1.0,4.0,51,0.00,,---,0.00,VWS V14.00,2013-06-14 22:27:00,
2013-06-14 17:32:00,93.6,73.3,29.90,SSW,201,6.0,6.0,52,0.00,,---,0.00,VWS V14.00,2013-06-14 22:32:00,
2013-06-14 17:37:00,93.7,73.4,29.90,East,96,0.0,4.0,52,0.00,,---,0.00,VWS V14.00,2013-06-14 22:37:00,
2013-06-14 17:42:00,93.7,73.4,29.89,SSW,210,0.0,1.0,52,0.00,,---,0.00,VWS V14.00,2013-06-14 22:42:00,
2013-06-14 17:47:00,94.4,74.1,29.89,South,172,0.0,3.0,52,0.00,,---,0.00,VWS V14.00,2013-06-14 22:47:00,
2013-06-14 17:52:00,94.6,73.7,29.89,SE,128,0.0,0.0,51,0.00,,---,0.00,VWS V14.00,2013-06-14 22:52:00,
2013-06-14 17:57:00,94.0,73.7,29.89,SSE,168,0.0,1.0,52,0.00,,---,0.00,VWS V14.00,2013-06-14 22:57:00,
2013-06-14 18:03:00,93.9,72.4,29.89,ESE,103,1.0,8.0,50,0.00,,---,0.00,VWS V14.00,2013-06-14 23:03:00,
2013-06-14 18:08:00,93.5,72.1,29.89,South,181,0.0,7.0,50,0.00,,---,0.00,VWS V14.00,2013-06-14 23:08:00,
2013-06-14 18:13:00,93.3,72.5,29.89,SE,129,0.0,0.0,51,0.00,,---,0.00,VWS V14.00,2013-06-14 23:13:00,
2013-06-14 18:18:00,93.4,72.6,29.89,SSE,150,0.0,5.0,51,0.00,,---,0.00,VWS V14.00,2013-06-14 23:18:00,
2013-06-14 18:23:00,93.3,72.5,29.89,SSE,148,0.0,0.0,51,0.00,,---,0.00,VWS V14.00,2013-06-14 23:23:00,
2013-06-14 18:28:00,93.1,72.3,29.89,East,101,5.0,9.0,51,0.00,,---,0.00,VWS V14.00,2013-06-14 23:28:00,
2013-06-14 18:34:00,92.8,72.0,29.89,SSW,203,5.0,8.0,51,0.00,,---,0.00,VWS V14.00,2013-06-14 23:34:00,
2013-06-14 18:39:00,92.9,72.1,29.89,ESE,122,2.0,5.0,51,0.00,,---,0.00,VWS V14.00,2013-06-14 23:39:00,
2013-06-14 18:44:00,93.0,72.2,29.89,SSE,162,0.0,2.0,51,0.00,,---,0.00,VWS V14.00,2013-06-14 23:44:00,
2013-06-14 18:49:00,93.1,72.3,29.89,South,176,2.0,4.0,51,0.00,,---,0.00,VWS V14.00,2013-06-14 23:49:00,
2013-06-14 18:54:00,92.8,72.6,29.89,West,268,0.0,2.0,52,0.00,,---,0.00,VWS V14.00,2013-06-14 23:54:00,
2013-06-14 18:59:00,93.0,73.3,29.89,SSE,165,0.0,0.0,53,0.00,,---,0.00,VWS V14.00,2013-06-14 23:59:00,
2013-06-14 19:05:00,92.9,73.3,29.89,ESE,117,0.0,5.0,53,0.00,,---,0.00,VWS V14.00,2013-06-15 00:05:00,
2013-06-14 19:10:00,92.4,73.3,29.89,ESE,120,3.0,5.0,54,0.00,,---,0.00,VWS V14.00,2013-06-15 00:10:00,
2013-06-14 19:15:00,92.1,73.6,29.89,SE,133,5.0,9.0,55,0.00,,---,0.00,VWS V14.00,2013-06-15 00:15:00,
2013-06-14 19:20:00,91.8,74.4,29.89,SE,141,0.0,3.0,57,0.00,,---,0.00,VWS V14.00,2013-06-15 00:20:00,
2013-06-14 19:25:00,91.6,74.2,29.89,SE,128,0.0,4.0,57,0.00,,---,0.00,VWS V14.00,2013-06-15 00:25:00,
2013-06-14 19:30:00,91.3,74.5,29.89,South,169,0.0,5.0,58,0.00,,---,0.00,VWS V14.00,2013-06-15 00:30:00,
2013-06-14 19:35:00,91.1,74.3,29.89,ESE,108,0.0,3.0,58,0.00,,---,0.00,VWS V14.00,2013-06-15 00:35:00,
2013-06-14 19:40:00,90.8,74.5,29.89,ESE,113,0.0,0.0,59,0.00,,---,0.00,VWS V14.00,2013-06-15 00:40:00,
2013-06-14 19:45:00,90.7,74.9,29.89,ESE,122,0.0,0.0,60,0.00,,---,0.00,VWS V14.00,2013-06-15 00:45:00,
2013-06-14 19:50:00,90.3,74.5,29.89,South,188,0.0,4.0,60,0.00,,---,0.00,VWS V14.00,2013-06-15 00:50:00,
2013-06-14 19:55:00,90.0,74.8,29.89,SSE,155,2.0,3.0,61,0.00,,---,0.00,VWS V14.00,2013-06-15 00:55:00,
2013-06-14 20:00:00,89.7,75.0,29.89,SSW,195,0.0,0.0,62,0.00,,---,0.00,VWS V14.00,2013-06-15 01:00:00,
2013-06-14 20:05:00,89.6,74.9,29.89,South,181,0.0,0.0,62,0.00,,---,0.00,VWS V14.00,2013-06-15 01:05:00,
2013-06-14 20:10:00,89.4,75.2,29.89,ESE,119,0.0,2.0,63,0.00,,---,0.00,VWS V14.00,2013-06-15 01:10:00,
2013-06-14 20:15:00,89.2,75.0,29.89,ESE,117,0.0,0.0,63,0.00,,---,0.00,VWS V14.00,2013-06-15 01:15:00,
2013-06-14 20:20:00,89.1,75.3,29.89,ESE,119,0.0,0.0,64,0.00,,---,0.00,VWS V14.00,2013-06-15 01:20:00,
2013-06-14 20:25:00,88.9,75.2,29.89,SSE,151,0.0,3.0,64,0.00,,---,0.00,VWS V14.00,2013-06-15 01:25:00,
2013-06-14 20:30:00,88.7,75.4,29.89,ESE,105,0.0,6.0,65,0.00,,---,0.00,VWS V14.00,2013-06-15 01:30:00,
2013-06-14 20:35:00,88.5,75.2,29.89,South,180,0.0,0.0,65,0.00,,---,0.00,VWS V14.00,2013-06-15 01:35:00,
2013-06-14 20:40:00,88.3,75.1,29.89,South,176,0.0,0.0,65,0.00,,---,0.00,VWS V14.00,2013-06-15 01:40:00,
2013-06-14 20:45:00,88.1,74.9,29.89,SSE,168,0.0,0.0,65,0.00,,---,0.00,VWS V14.00,2013-06-15 01:45:00,
2013-06-14 20:50:00,88.1,75.3,29.89,SSE,167,0.0,0.0,66,0.00,,---,0.00,VWS V14.00,2013-06-15 01:50:00,
2013-06-14 20:55:00,87.9,75.1,29.89,SSE,166,0.0,2.0,66,0.00,,---,0.00,VWS V14.00,2013-06-15 01:55:00,
2013-06-14 21:00:00,87.8,75.0,29.90,SSE,165,0.0,0.0,66,0.00,,---,0.00,VWS V14.00,2013-06-15 02:00:00,
2013-06-14 21:05:00,87.7,74.9,29.90,SSE,165,0.0,0.0,66,0.00,,---,0.00,VWS V14.00,2013-06-15 02:05:00,
2013-06-14 21:10:00,87.7,74.9,29.90,SSE,165,0.0,1.0,66,0.00,,---,0.00,VWS V14.00,2013-06-15 02:10:00,
2013-06-14 21:15:00,87.5,74.8,29.90,SSE,163,1.0,1.0,66,0.00,,---,0.00,VWS V14.00,2013-06-15 02:15:00,
2013-06-14 21:20:00,87.3,75.0,29.90,SSE,163,0.0,0.0,67,0.00,,---,0.00,VWS V14.00,2013-06-15 02:20:00,
2013-06-14 21:25:00,87.1,74.8,29.90,SSE,163,0.0,0.0,67,0.00,,---,0.00,VWS V14.00,2013-06-15 02:25:00,
2013-06-14 21:30:00,86.9,74.6,29.91,SSE,161,0.0,1.0,67,0.00,,---,0.00,VWS V14.00,2013-06-15 02:30:00,
2013-06-14 21:35:00,86.7,74.9,29.91,SSE,160,0.0,5.0,68,0.00,,---,0.00,VWS V14.00,2013-06-15 02:35:00,
2013-06-14 21:40:00,86.6,74.8,29.91,SSE,160,0.0,0.0,68,0.00,,---,0.00,VWS V14.00,2013-06-15 02:40:00,
2013-06-14 21:45:00,86.5,74.7,29.91,SSE,160,0.0,0.0,68,0.00,,---,0.00,VWS V14.00,2013-06-15 02:45:00,
2013-06-14 21:50:00,86.4,75.0,29.91,SSE,160,0.0,1.0,69,0.00,,---,0.00,VWS V14.00,2013-06-15 02:50:00,
2013-06-14 21:55:00,86.3,74.9,29.91,SSE,160,0.0,0.0,69,0.00,,---,0.00,VWS V14.00,2013-06-15 02:55:00,
2013-06-14 22:00:00,86.3,74.5,29.92,SSE,161,0.0,0.0,68,0.00,,---,0.00,VWS V14.00,2013-06-15 03:00:00,
2013-06-14 22:05:00,86.3,74.5,29.92,SSE,160,0.0,0.0,68,0.00,,---,0.00,VWS V14.00,2013-06-15 03:05:00,
2013-06-14 22:10:00,86.4,74.6,29.92,SSE,162,0.0,1.0,68,0.00,,---,0.00,VWS V14.00,2013-06-15 03:10:00,
2013-06-14 22:15:00,86.3,74.5,29.92,SSE,162,0.0,0.0,68,0.00,,---,0.00,VWS V14.00,2013-06-15 03:15:00,
2013-06-14 22:20:00,86.3,74.5,29.92,SSE,162,0.0,0.0,68,0.00,,---,0.00,VWS V14.00,2013-06-15 03:20:00,
2013-06-14 22:25:00,86.1,74.3,29.92,SSE,162,0.0,0.0,68,0.00,,---,0.00,VWS V14.00,2013-06-15 03:25:00,
2013-06-14 22:31:00,85.9,74.6,29.93,SSE,162,0.0,0.0,69,0.00,,---,0.00,VWS V14.00,2013-06-15 03:31:00,
2013-06-14 22:36:00,85.8,74.5,29.93,SSE,162,0.0,0.0,69,0.00,,---,0.00,VWS V14.00,2013-06-15 03:36:00,
2013-06-14 22:41:00,85.7,74.8,29.93,SSE,162,0.0,0.0,70,0.00,,---,0.00,VWS V14.00,2013-06-15 03:41:00,
2013-06-14 22:46:00,85.6,74.7,29.93,SSE,162,0.0,1.0,70,0.00,,---,0.00,VWS V14.00,2013-06-15 03:46:00,
2013-06-14 22:51:00,85.4,74.5,29.93,SSE,162,0.0,0.0,70,0.00,,---,0.00,VWS V14.00,2013-06-15 03:51:00,
2013-06-14 22:56:00,85.2,74.7,29.93,SSE,162,0.0,0.0,71,0.00,,---,0.00,VWS V14.00,2013-06-15 03:56:00,
2013-06-14 23:01:00,85.0,74.6,29.94,SSE,162,0.0,0.0,71,0.00,,---,0.00,VWS V14.00,2013-06-15 04:01:00,
2013-06-14 23:02:00,85.0,74.6,29.94,SSE,162,0.0,0.0,71,0.00,,---,0.00,VWS V14.00,2013-06-15 04:02:00,
2013-06-14 23:04:00,84.9,74.4,29.94,SSE,162,0.0,0.0,71,0.00,,---,0.00,VWS V14.00,2013-06-15 04:04:00,
2013-06-14 23:09:00,84.8,74.8,29.94,SSE,162,0.0,0.0,72,0.00,,---,0.00,VWS V14.00,2013-06-15 04:09:00,
2013-06-14 23:10:00,84.7,74.7,29.94,SSE,162,0.0,0.0,72,0.00,,---,0.00,VWS V14.00,2013-06-15 04:10:00,
2013-06-14 23:14:00,84.6,74.6,29.94,SSE,162,0.0,0.0,72,0.00,,---,0.00,VWS V14.00,2013-06-15 04:14:00,
2013-06-14 23:19:00,84.5,74.9,29.94,SSE,162,0.0,0.0,73,0.00,,---,0.00,VWS V14.00,2013-06-15 04:19:00,
2013-06-14 23:24:00,84.4,74.8,29.94,SSE,162,0.0,0.0,73,0.00,,---,0.00,VWS V14.00,2013-06-15 04:24:00,
2013-06-14 23:29:00,84.4,75.2,29.94,SSE,162,0.0,0.0,74,0.00,,---,0.00,VWS V14.00,2013-06-15 04:29:00,
2013-06-14 23:34:00,84.5,74.9,29.94,SSE,162,0.0,0.0,73,0.00,,---,0.00,VWS V14.00,2013-06-15 04:34:00,
2013-06-14 23:39:00,84.5,74.9,29.94,SSE,162,0.0,0.0,73,0.00,,---,0.00,VWS V14.00,2013-06-15 04:39:00,
2013-06-14 23:44:00,84.4,75.2,29.94,SSE,162,0.0,0.0,74,0.00,,---,0.00,VWS V14.00,2013-06-15 04:44:00,
2013-06-14 23:49:00,84.2,75.0,29.94,SSE,162,0.0,0.0,74,0.00,,---,0.00,VWS V14.00,2013-06-15 04:49:00,
2013-06-14 23:54:00,83.9,75.1,29.94,SSE,162,0.0,0.0,75,0.00,,---,0.00,VWS V14.00,2013-06-15 04:54:00,